www.pogodaiklimat.ru
ПОГОДА в Аллентауне
Время
и дата
12:35 26.02
12:55 26.02
13:15 26.02
13:35 26.02
13:55 26.02
14:15 26.02
14:35 26.02
14:55 26.02
15:15 26.02
15:35 26.02
15:55 26.02
16:15 26.02
16:35 26.02
16:55 26.02
17:15 26.02
17:35 26.02
17:55 26.02
18:15 26.02
18:35 26.02
18:55 26.02
19:15 26.02
19:35 26.02
19:55 26.02
20:15 26.02
20:35 26.02
20:55 26.02
21:15 26.02
21:35 26.02
21:55 26.02
22:15 26.02
22:35 26.02
22:55 26.02
23:15 26.02
23:35 26.02
23:55 26.02
00:15 27.02
00:35 27.02
00:55 27.02
01:15 27.02
01:35 27.02
01:55 27.02
02:15 27.02
02:35 27.02
02:55 27.02
03:15 27.02
03:35 27.02
03:55 27.02
04:15 27.02
Ветер
(напр.,м/с)
Видим. Явления Облачность Т
(С)
Тd
(С)
f
(%)
Тe
(С)
Тes
(С)
Комфортность P
(гПа)
Po
(гПа)
Тmin
(С)
Tmax
(С)
R
(мм)
R24
(мм)
S
(см)
ЮЗ 3 16 км ясно +10.0 0.0 50 +8 +16 1002.2
Ю 2 16 км ясно +10.0 0.0 50 +9 +18 1001.9
штиль 0 16 км ясно +11.0 0.0 47 +11 +23 опасность
простуды
1001.9
штиль 0 16 км ясно +11.0 0.0 47 +11 +23 опасность
простуды
1001.5
ЮВ 2 16 км ясно +12.0 0.0 44 +11 +20 1001.2
штиль 0 16 км ясно +12.0 0.0 44 +12 +21 1001.2
З 2 16 км ясно +12.0 0.0 44 +11 +18 1001.2
ЮЗ 2 16 км ясно +13.0 0.0 41 +13 +19 1000.9
штиль 0 16 км ясно +13.0 0.0 41 +13 +19 1000.9
З 2 16 км ясно +13.0 0.0 41 +13 +17 1000.9
Ю 2 16 км ясно +13.0 0.0 41 +13 +17 1000.9
штиль 0 16 км ясно +13.0 0.0 41 +13 +15 1000.5
ЮЗ 2 16 км ясно +13.0 0.0 41 +13 +14 1000.5
Ю 2 16 км ясно +13.0 0.0 41 +13 +14 1000.9
Ю 2 16 км ясно +12.0 0.0 44 +11 +12 1000.9
Ю 2 16 км ясно +12.0 0.0 44 +11 +12 1000.9
Ю 2 16 км ясно +12.0 0.0 44 +11 +12 1000.9
Ю 2 16 км ясно +11.0 0.0 47 +10 +10 1001.2
Ю 2 16 км ясно +11.0 0.0 47 +10 +10 1001.5
ЮЗ 2 16 км ясно +10.0 0.0 50 +9 +9 1001.5
Ю 2 16 км ясно +10.0 0.0 50 +9 +9 1001.5
штиль 0 16 км ясно +9.0 0.0 53 +9 +9 1001.5
штиль 0 16 км ясно +10.0 0.0 50 +10 +10 1001.9
штиль 0 16 км ясно +10.0 +1.0 54 +10 +10 1001.9
штиль 0 16 км ясно +7.0 0.0 61 +7 +7 1002.2
штиль 0 16 км ясно +8.0 0.0 57 +8 +8 1002.2
штиль 0 16 км ясно +8.0 0.0 57 +8 +8 1002.5
штиль 0 16 км ясно +7.0 0.0 61 +7 +7 1002.5
штиль 0 16 км ясно +7.0 0.0 61 +7 +7 1002.5
СВ 2 16 км ясно +7.0 0.0 61 +5 +5 1002.5
СВ 2 16 км ясно +6.0 0.0 65 +4 +4 1002.5
штиль 0 16 км ясно +5.0 0.0 70 +4 +4 1002.5
СВ 2 16 км ясно +5.0 0.0 70 +3 +3 1002.2
С 2 16 км ясно +4.0 0.0 75 +1 +1 1002.2
штиль 0 16 км ясно +5.0 0.0 70 +4 +4 1002.2
штиль 0 16 км ясно +5.0 0.0 70 +4 +4 1002.2
штиль 0 16 км ясно +3.0 0.0 81 +2 +2 1002.2
СВ 2 16 км ясно +3.0 0.0 81 0 0 1001.9
штиль 0 16 км ясно +3.0 0.0 81 +2 +2 1001.9
штиль 0 16 км ясно +3.0 0.0 81 +2 +2 1001.9
СВ 2 16 км ясно +3.0 0.0 81 0 0 1001.5
штиль 0 16 км ясно +2.0 0.0 87 +1 +1 1001.2
штиль 0 16 км ясно +2.0 0.0 87 +1 +1 1001.2
штиль 0 16 км ясно +2.0 0.0 87 +1 +1 1001.2
штиль 0 16 км ясно +1.0 0.0 93 0 0 1000.9
штиль 0 16 км ясно +1.0 0.0 93 0 0 1001.2
штиль 0 16 км ясно +2.0 0.0 87 +1 +1 1001.2
штиль 0 16 км ясно +1.0 0.0 93 0 0 1001.2
Местоположение метеостанции Allentown Queen City Municipal Airport: широта 40.5700 долгота -75.4880 высота над уровнем моря 122 м.
В архиве по умолчанию представлена погода в Аллентауне за последние 1-2 суток. Обновление информации о фактической погоде в базе происходит ежечасно! Архивные данные за месяц целиком и за предыдущие месяцы Вы можете получить, выбрав интересующий диапазон дат из раскрывающегося списка и нажав кнопку "Ввод!".
Внимание! Архив погоды МЕТАР в базе сайта по станциям, не включенным в климатический монитор, хранится не более 60 дней. Нет смысла пытаться выбрать более раннюю дату.
*Определитесь, кто Вы:
Внимание! Время в таблицах - местное (без учета летнего времени). Для получения всемирного времени необходимо вычесть поправку, которая равна -5 ч.
Смотрите также архив погоды в соседних городах и на ближайших метеорологических станциях:
Партнеры нашего сайта:      
Пояснения к столбцам:
  • Ветер - указаны скорость ветра в м/с - средняя за 10 мин, порывы в срок и между сроками (в фигурных скобках) и направление, откуда дует ветер: С - северный,
  • СВ - северо-восточный, В - восточный, ЮВ - юго-восточный, Ю - южный, ЮЗ - юго-западный, З - западный, СЗ - северо-западный.
  • Видимость - горизонтальная дальность видимости в метрах или километрах. При видимости от 1 до 10 км при отсутствии осадков обычно наблюдается дымка, при ухудшении видимости до 1 км и менее - туман. В сухую погоду видимость может ухудшаться дымом, пылью или мглою.
  • Явления - указаны атмосферные явления, наблюдавшиеся в срок или в последний час перед сроком; фигурными скобками обозначены явления, наблюдавшиеся между сроками (за 1-3 часа до срока); квадратными скобками обозначены град или гололедные отложения с указанием их диаметра в мм.
  • Облачность - указаны через наклонную черту общая и нижняя облачность в баллах и высота нижней границы облаков в метрах; квадратными скобками обозначены формы облаков: Ci - перистые, Cs - перисто-слоистые, Cc - перисто-кучевые, Ac - высококучевые, As - высокослоистые, Sc - слоисто-кучевые, Ns - слоисто-дождевые, Cu - кучевые, Cb - кучево-дождевые. Подробнее классификацию облаков см. в Атласе облаков (PDF).
  • T - Температура воздуха - температура, измеренная на высоте 2 м над землей.
  • Td - Температура точки росы - температура, при понижении до которой содержащийся в воздухе водяной пар достигнет насыщения.
  • f - Относительная влажность воздуха - влажноcть воздуха, измеренная на высоте 2 м над землей.
  • Te - Эффективная температура - температура, которую ощущает одетый по сезону человек в тени. Характеристика душности погоды. При расчете учитывается влияние влажности воздуха и скорости ветра на теплоощущения человека.
  • Tes - Эффективная температура на солнце - температура, которую ощущает человек, с поправкой на солнечный нагрев. Характеристика знойности погоды. Зависит от высоты солнца над горизонтом, облачности и скорости ветра. Ночью, в пасмурную погоду, а также при ветре 12 м/с и более поправка равна нулю.
  • P - Атмосферное давление - приведенное к уровню моря атмосферное давление.
  • Po - Атмосферное давление - измеренное на уровне метеостанции атмосферное давление.
  • Tmin - Минимальная температура - минимум температуры воздуха на высоте 2 м над землей.
  • Tmax - Максимальная температура - максимум температуры воздуха на высоте 2 м над землей.
  • R - Количество осадков - Количество выпавших осадков за период времени, мм. При наведении курсора мыши на число - период времени, за который выпало указанное количество осадков.
  • R24 - Количество осадков - Количество выпавших осадков за 24 часа, мм.
  • S - Снежный покров - Высота снежного покрова, см. При наведении курсора мыши на число - состояние снежного покрова и степень покрытия местности в баллах.